contact:dominique.lefevre@mio.osupytheas.fr, maurice.libes@osupytheas.fr, didier.mallarino@osupytheas.fr
Project:EMSO http://www.emso-fr.org/EMSO-France
Depth: 2436.0 m
Title:EMSO Ligure Ouest : Data MII capteur MICROCAT
DateTime_Computer,Latitude,Longitude,Temperature,Conductivity,Pressure,DateTime_Instrument
DateTime_Computer,Latitude,Longitude,degC,S m-1,dbar,DateTime_Instrument
2023-02-04T00:02:53Z,42.805,6.029,13.3047,4.60162,2470.483,2023-2-04T02:05:10Z
2023-02-04T00:05:56Z,42.805,6.029,13.3045,4.60117,2470.483,2023-2-04T02:08:14Z
2023-02-04T00:08:59Z,42.805,6.029,13.3050,4.60149,2470.497,2023-2-04T02:11:17Z
2023-02-04T00:12:02Z,42.805,6.029,13.3076,4.60160,2470.483,2023-2-04T02:14:20Z
2023-02-04T00:15:05Z,42.805,6.029,13.3033,4.60176,2470.483,2023-2-04T02:17:23Z
2023-02-04T00:18:08Z,42.805,6.029,13.3032,4.60170,2470.497,2023-2-04T02:20:26Z
2023-02-04T00:21:11Z,42.805,6.029,13.3043,4.60167,2470.46,2023-2-04T02:23:29Z
2023-02-04T00:24:14Z,42.805,6.029,13.3041,4.60122,2470.474,2023-2-04T02:26:32Z
2023-02-04T00:27:18Z,42.805,6.029,13.3044,4.60129,2470.507,2023-2-04T02:29:35Z
2023-02-04T00:30:21Z,42.805,6.029,13.3036,4.60109,2470.46,2023-2-04T02:32:38Z
2023-02-04T00:33:24Z,42.805,6.029,13.3038,4.60125,2470.483,2023-2-04T02:35:41Z
2023-02-04T00:36:27Z,42.805,6.029,13.3043,4.60146,2470.497,2023-2-04T02:38:44Z
2023-02-04T00:39:30Z,42.805,6.029,13.3042,4.60139,2470.483,2023-2-04T02:41:47Z
2023-02-04T00:42:33Z,42.805,6.029,13.3033,4.60135,2470.507,2023-2-04T02:44:50Z
2023-02-04T00:45:36Z,42.805,6.029,13.3049,4.60156,2470.46,2023-2-04T02:47:54Z
2023-02-04T00:48:39Z,42.805,6.029,13.3048,4.60161,2470.474,2023-2-04T02:50:57Z
2023-02-04T00:51:42Z,42.805,6.029,13.3074,4.60111,2470.483,2023-2-04T02:54:00Z
2023-02-04T00:54:45Z,42.805,6.029,13.3040,4.60127,2470.483,2023-2-04T02:57:03Z
2023-02-04T00:57:48Z,42.805,6.029,13.3047,4.60122,2470.52,2023-2-04T03:00:06Z
2023-02-04T01:00:51Z,42.805,6.029,13.3044,4.60135,2470.474,2023-2-04T03:03:09Z
2023-02-04T01:03:54Z,42.805,6.029,13.3064,4.60135,2470.483,2023-2-04T03:06:12Z
2023-02-04T01:06:57Z,42.805,6.029,13.3054,4.60218,2470.507,2023-2-04T03:09:15Z
2023-02-04T01:10:01Z,42.805,6.029,13.3065,4.60185,2470.507,2023-2-04T03:12:18Z
2023-02-04T01:13:04Z,42.805,6.029,13.3052,4.60122,2470.52,2023-2-04T03:15:21Z
2023-02-04T01:16:07Z,42.805,6.029,13.3055,4.60118,2470.507,2023-2-04T03:18:24Z
2023-02-04T01:19:10Z,42.805,6.029,13.3067,4.60155,2470.497,2023-2-04T03:21:27Z
2023-02-04T01:22:13Z,42.805,6.029,13.3070,4.60148,2470.483,2023-2-04T03:24:30Z
2023-02-04T01:25:16Z,42.805,6.029,13.3043,4.60140,2470.46,2023-2-04T03:27:33Z
2023-02-04T01:28:19Z,42.805,6.029,13.3043,4.60135,2470.507,2023-2-04T03:30:37Z
2023-02-04T01:31:22Z,42.805,6.029,13.3039,4.60127,2470.507,2023-2-04T03:33:40Z
2023-02-04T01:34:25Z,42.805,6.029,13.3041,4.60122,2470.52,2023-2-04T03:36:43Z
2023-02-04T01:37:28Z,42.805,6.029,13.3049,4.60140,2470.52,2023-2-04T03:39:46Z
2023-02-04T01:40:31Z,42.805,6.029,13.3040,4.60167,2470.497,2023-2-04T03:42:49Z
2023-02-04T01:43:34Z,42.805,6.029,13.3043,4.60135,2470.52,2023-2-04T03:45:52Z
2023-02-04T01:46:37Z,42.805,6.029,13.3046,4.60130,2470.497,2023-2-04T03:48:55Z
2023-02-04T01:49:41Z,42.805,6.029,13.3043,4.60137,2470.53,2023-2-04T03:51:58Z
2023-02-04T01:52:44Z,42.805,6.029,13.3048,4.60134,2470.507,2023-2-04T03:55:01Z
2023-02-04T01:55:47Z,42.805,6.029,13.3054,4.60144,2470.52,2023-2-04T03:58:04Z
2023-02-04T01:58:50Z,42.805,6.029,13.3056,4.60135,2470.507,2023-2-04T04:01:07Z
2023-02-04T02:01:53Z,42.805,6.029,13.3047,4.60144,2470.483,2023-2-04T04:04:10Z
2023-02-04T02:04:56Z,42.805,6.029,13.3050,4.60142,2470.497,2023-2-04T04:07:13Z
2023-02-04T02:07:59Z,42.805,6.029,13.3066,4.60127,2470.483,2023-2-04T04:10:17Z
2023-02-04T02:11:02Z,42.805,6.029,13.3051,4.60170,2470.493,2023-2-04T04:13:20Z
2023-02-04T02:14:05Z,42.805,6.029,13.3054,4.60190,2470.507,2023-2-04T04:16:23Z
2023-02-04T02:17:08Z,42.805,6.029,13.3068,4.60157,2470.483,2023-2-04T04:19:26Z
2023-02-04T02:20:11Z,42.805,6.029,13.3051,4.60121,2470.507,2023-2-04T04:22:29Z
2023-02-04T02:23:14Z,42.805,6.029,13.3063,4.60153,2470.507,2023-2-04T04:25:32Z
2023-02-04T02:26:17Z,42.805,6.029,13.3066,4.60162,2470.53,2023-2-04T04:28:35Z
2023-02-04T02:29:21Z,42.805,6.029,13.3093,4.60152,2470.516,2023-2-04T04:31:38Z
2023-02-04T02:32:24Z,42.805,6.029,13.3056,4.60142,2470.507,2023-2-04T04:34:41Z
2023-02-04T02:35:27Z,42.805,6.029,13.3051,4.60160,2470.567,2023-2-04T04:37:44Z
2023-02-04T02:38:30Z,42.805,6.029,13.3091,4.60140,2470.544,2023-2-04T04:40:47Z
2023-02-04T02:41:33Z,42.805,6.029,13.3098,4.60155,2470.497,2023-2-04T04:43:50Z
2023-02-04T02:44:36Z,42.805,6.029,13.3090,4.60190,2470.553,2023-2-04T04:46:53Z
2023-02-04T02:47:39Z,42.805,6.029,13.3069,4.60111,2470.53,2023-2-04T04:49:57Z
2023-02-04T02:50:42Z,42.805,6.029,13.3071,4.60134,2470.483,2023-2-04T04:53:00Z
2023-02-04T02:53:45Z,42.805,6.029,13.3071,4.60146,2470.53,2023-2-04T04:56:03Z
2023-02-04T02:56:48Z,42.805,6.029,13.3094,4.60147,2470.553,2023-2-04T04:59:06Z
2023-02-04T02:59:51Z,42.805,6.029,13.3073,4.60141,2470.53,2023-2-04T05:02:09Z
2023-02-04T03:02:54Z,42.805,6.029,13.3113,4.60178,2470.53,2023-2-04T05:05:12Z
2023-02-04T03:05:57Z,42.805,6.029,13.3065,4.60162,2470.544,2023-2-04T05:08:15Z
2023-02-04T03:09:00Z,42.805,6.029,13.3061,4.60174,2470.567,2023-2-04T05:11:18Z
2023-02-04T03:12:04Z,42.805,6.029,13.3085,4.60165,2470.591,2023-2-04T05:14:21Z
2023-02-04T03:15:07Z,42.805,6.029,13.3085,4.60134,2470.53,2023-2-04T05:17:24Z
2023-02-04T03:18:10Z,42.805,6.029,13.3089,4.60146,2470.567,2023-2-04T05:20:27Z
2023-02-04T03:21:13Z,42.805,6.029,13.3080,4.60150,2470.591,2023-2-04T05:23:30Z
2023-02-04T03:24:16Z,42.805,6.029,13.3111,4.60171,2470.553,2023-2-04T05:26:33Z
2023-02-04T03:27:19Z,42.805,6.029,13.3085,4.60163,2470.553,2023-2-04T05:29:37Z
2023-02-04T03:30:22Z,42.805,6.029,13.3084,4.60145,2470.591,2023-2-04T05:32:40Z
2023-02-04T03:33:25Z,42.805,6.029,13.3063,4.60144,2470.591,2023-2-04T05:35:43Z
2023-02-04T03:36:28Z,42.805,6.029,13.3059,4.60161,2470.567,2023-2-04T05:38:46Z
2023-02-04T03:39:31Z,42.805,6.029,13.3068,4.60140,2470.567,2023-2-04T05:41:49Z
2023-02-04T03:42:34Z,42.805,6.029,13.3078,4.60162,2470.591,2023-2-04T05:44:52Z
2023-02-04T03:45:37Z,42.805,6.029,13.3089,4.60135,2470.553,2023-2-04T05:47:55Z
2023-02-04T03:48:41Z,42.805,6.029,13.3091,4.60156,2470.614,2023-2-04T05:50:58Z
2023-02-04T03:51:44Z,42.805,6.029,13.3082,4.60160,2470.614,2023-2-04T05:54:01Z
2023-02-04T03:54:47Z,42.805,6.029,13.3098,4.60108,2470.577,2023-2-04T05:57:04Z
2023-02-04T03:57:50Z,42.805,6.029,13.3106,4.60112,2470.577,2023-2-04T06:00:07Z
2023-02-04T04:00:53Z,42.805,6.029,13.3041,4.60112,2470.614,2023-2-04T06:03:10Z
2023-02-04T04:03:56Z,42.805,6.029,13.3054,4.60096,2470.646,2023-2-04T06:06:13Z
2023-02-04T04:06:59Z,42.805,6.029,13.3039,4.60104,2470.577,2023-2-04T06:09:17Z
2023-02-04T04:10:02Z,42.805,6.029,13.3019,4.60122,2470.614,2023-2-04T06:12:20Z
2023-02-04T04:13:05Z,42.805,6.029,13.3024,4.60106,2470.591,2023-2-04T06:15:23Z
2023-02-04T04:16:08Z,42.805,6.029,13.3021,4.60104,2470.637,2023-2-04T06:18:26Z
2023-02-04T04:19:11Z,42.805,6.029,13.3023,4.60101,2470.6,2023-2-04T06:21:29Z
2023-02-04T04:22:14Z,42.805,6.029,13.3022,4.60093,2470.6,2023-2-04T06:24:32Z
2023-02-04T04:25:17Z,42.805,6.029,13.3024,4.60099,2470.614,2023-2-04T06:27:35Z
2023-02-04T04:28:20Z,42.805,6.029,13.3024,4.60081,2470.6,2023-2-04T06:30:38Z
2023-02-04T04:31:24Z,42.805,6.029,13.3025,4.60081,2470.637,2023-2-04T06:33:41Z
2023-02-04T04:34:27Z,42.805,6.029,13.3025,4.60090,2470.614,2023-2-04T06:36:44Z
2023-02-04T04:37:30Z,42.805,6.029,13.3028,4.60086,2470.646,2023-2-04T06:39:47Z
2023-02-04T04:40:33Z,42.805,6.029,13.3023,4.60087,2470.637,2023-2-04T06:42:50Z
2023-02-04T04:43:36Z,42.805,6.029,13.3022,4.60092,2470.661,2023-2-04T06:45:53Z
2023-02-04T04:46:39Z,42.805,6.029,13.3024,4.60089,2470.624,2023-2-04T06:48:57Z
2023-02-04T04:49:42Z,42.805,6.029,13.3024,4.60090,2470.646,2023-2-04T06:52:00Z
2023-02-04T04:52:45Z,42.805,6.029,13.3024,4.60087,2470.624,2023-2-04T06:55:03Z
2023-02-04T04:55:48Z,42.805,6.029,13.3022,4.60088,2470.661,2023-2-04T06:58:06Z
2023-02-04T04:58:51Z,42.805,6.029,13.3024,4.60081,2470.67,2023-2-04T07:01:09Z
2023-02-04T05:01:54Z,42.805,6.029,13.3022,4.60080,2470.646,2023-2-04T07:04:12Z
2023-02-04T05:04:57Z,42.805,6.029,13.3021,4.60087,2470.67,2023-2-04T07:07:15Z
2023-02-04T05:08:00Z,42.805,6.029,13.3022,4.60081,2470.646,2023-2-04T07:10:18Z
2023-02-04T05:11:03Z,42.805,6.029,13.3024,4.60086,2470.67,2023-2-04T07:13:21Z
2023-02-04T05:14:07Z,42.805,6.029,13.3021,4.60081,2470.684,2023-2-04T07:16:24Z
2023-02-04T05:17:10Z,42.805,6.029,13.3024,4.60086,2470.646,2023-2-04T07:19:27Z
2023-02-04T05:20:13Z,42.805,6.029,13.3024,4.60081,2470.646,2023-2-04T07:22:30Z
2023-02-04T05:23:16Z,42.805,6.029,13.3021,4.60086,2470.661,2023-2-04T07:25:33Z
2023-02-04T05:26:19Z,42.805,6.029,13.3023,4.60079,2470.661,2023-2-04T07:28:37Z
2023-02-04T05:29:22Z,42.805,6.029,13.3022,4.60086,2470.656,2023-2-04T07:31:40Z
2023-02-04T05:32:25Z,42.805,6.029,13.3024,4.60080,2470.67,2023-2-04T07:34:43Z
2023-02-04T05:35:28Z,42.805,6.029,13.3022,4.60083,2470.646,2023-2-04T07:37:46Z
2023-02-04T05:38:31Z,42.805,6.029,13.3029,4.60082,2470.693,2023-2-04T07:40:49Z
2023-02-04T05:41:34Z,42.805,6.029,13.3025,4.60080,2470.67,2023-2-04T07:43:52Z
2023-02-04T05:44:37Z,42.805,6.029,13.3026,4.60079,2470.67,2023-2-04T07:46:55Z
2023-02-04T05:47:40Z,42.805,6.029,13.3026,4.60079,2470.67,2023-2-04T07:49:58Z
2023-02-04T05:50:44Z,42.805,6.029,13.3022,4.60081,2470.67,2023-2-04T07:53:01Z
2023-02-04T05:53:47Z,42.805,6.029,13.3025,4.60079,2470.717,2023-2-04T07:56:04Z
2023-02-04T05:56:50Z,42.805,6.029,13.3026,4.60081,2470.67,2023-2-04T07:59:07Z
2023-02-04T05:59:53Z,42.805,6.029,13.3026,4.60084,2470.693,2023-2-04T08:02:10Z
2023-02-04T06:02:56Z,42.805,6.029,13.3021,4.60079,2470.67,2023-2-04T08:05:13Z
2023-02-04T06:05:59Z,42.805,6.029,13.3027,4.60084,2470.684,2023-2-04T08:08:16Z
2023-02-04T06:09:02Z,42.805,6.029,13.3024,4.60083,2470.693,2023-2-04T08:11:20Z
2023-02-04T06:12:05Z,42.805,6.029,13.3024,4.60087,2470.67,2023-2-04T08:14:23Z
2023-02-04T06:15:08Z,42.805,6.029,13.3035,4.60082,2470.693,2023-2-04T08:17:26Z
2023-02-04T06:18:11Z,42.805,6.029,13.3029,4.60085,2470.693,2023-2-04T08:20:29Z
2023-02-04T06:21:14Z,42.805,6.029,13.3036,4.60080,2470.717,2023-2-04T08:23:32Z
2023-02-04T06:24:17Z,42.805,6.029,13.3033,4.60092,2470.693,2023-2-04T08:26:35Z
2023-02-04T06:27:20Z,42.805,6.029,13.3045,4.60100,2470.707,2023-2-04T08:29:38Z
2023-02-04T06:30:23Z,42.805,6.029,13.3038,4.60091,2470.693,2023-2-04T08:32:41Z
2023-02-04T06:33:27Z,42.805,6.029,13.3023,4.60081,2470.707,2023-2-04T08:35:44Z
2023-02-04T06:36:30Z,42.805,6.029,13.3030,4.60079,2470.717,2023-2-04T08:38:47Z
2023-02-04T06:39:33Z,42.805,6.029,13.3026,4.60080,2470.693,2023-2-04T08:41:50Z
2023-02-04T06:42:36Z,42.805,6.029,13.3028,4.60081,2470.707,2023-2-04T08:44:53Z
2023-02-04T06:45:39Z,42.805,6.029,13.3025,4.60081,2470.693,2023-2-04T08:47:57Z
2023-02-04T06:48:42Z,42.805,6.029,13.3026,4.60079,2470.717,2023-2-04T08:51:00Z
2023-02-04T06:51:45Z,42.805,6.029,13.3029,4.60079,2470.693,2023-2-04T08:54:03Z
2023-02-04T06:54:48Z,42.805,6.029,13.3039,4.60081,2470.717,2023-2-04T08:57:06Z
2023-02-04T06:57:51Z,42.805,6.029,13.3039,4.60097,2470.717,2023-2-04T09:00:09Z
2023-02-04T07:00:54Z,42.805,6.029,13.3035,4.60080,2470.707,2023-2-04T09:03:12Z
2023-02-04T07:03:57Z,42.805,6.029,13.3024,4.60081,2470.707,2023-2-04T09:06:15Z
2023-02-04T07:07:00Z,42.805,6.029,13.3063,4.60100,2470.73,2023-2-04T09:09:18Z
2023-02-04T07:10:03Z,42.805,6.029,13.3051,4.60102,2470.707,2023-2-04T09:12:21Z
2023-02-04T07:13:06Z,42.805,6.029,13.3038,4.60088,2470.74,2023-2-04T09:15:24Z
2023-02-04T07:16:10Z,42.805,6.029,13.3039,4.60089,2470.74,2023-2-04T09:18:27Z
2023-02-04T07:19:13Z,42.805,6.029,13.3042,4.60104,2470.693,2023-2-04T09:21:30Z
2023-02-04T07:22:16Z,42.805,6.029,13.3043,4.60100,2470.717,2023-2-04T09:24:33Z
2023-02-04T07:25:19Z,42.805,6.029,13.3046,4.60107,2470.754,2023-2-04T09:27:36Z
2023-02-04T07:28:22Z,42.805,6.029,13.3043,4.60125,2470.707,2023-2-04T09:30:40Z
2023-02-04T07:31:25Z,42.805,6.029,13.3048,4.60102,2470.693,2023-2-04T09:33:43Z
2023-02-04T07:34:28Z,42.805,6.029,13.3047,4.60097,2470.693,2023-2-04T09:36:46Z
2023-02-04T07:37:31Z,42.805,6.029,13.3050,4.60149,2470.693,2023-2-04T09:39:49Z
2023-02-04T07:40:34Z,42.805,6.029,13.3051,4.60110,2470.73,2023-2-04T09:42:52Z
2023-02-04T07:43:37Z,42.805,6.029,13.3058,4.60099,2470.73,2023-2-04T09:45:55Z
2023-02-04T07:46:40Z,42.805,6.029,13.3043,4.60119,2470.73,2023-2-04T09:48:58Z
2023-02-04T07:49:43Z,42.805,6.029,13.3049,4.60125,2470.693,2023-2-04T09:52:01Z
2023-02-04T07:52:46Z,42.805,6.029,13.3041,4.60141,2470.693,2023-2-04T09:55:04Z
2023-02-04T07:55:50Z,42.805,6.029,13.3051,4.60142,2470.717,2023-2-04T09:58:07Z
2023-02-04T07:58:53Z,42.805,6.029,13.3048,4.60145,2470.74,2023-2-04T10:01:10Z
2023-02-04T08:01:56Z,42.805,6.029,13.3039,4.60137,2470.67,2023-2-04T10:04:13Z
2023-02-04T08:04:59Z,42.805,6.029,13.3047,4.60128,2470.693,2023-2-04T10:07:16Z
2023-02-04T08:08:02Z,42.805,6.029,13.3039,4.60150,2470.693,2023-2-04T10:10:20Z
2023-02-04T08:11:05Z,42.805,6.029,13.3047,4.60125,2470.67,2023-2-04T10:13:23Z
2023-02-04T08:14:08Z,42.805,6.029,13.3039,4.60137,2470.707,2023-2-04T10:16:26Z
2023-02-04T08:17:11Z,42.805,6.029,13.3058,4.60132,2470.707,2023-2-04T10:19:29Z
2023-02-04T08:20:14Z,42.805,6.029,13.3045,4.60131,2470.67,2023-2-04T10:22:32Z
2023-02-04T08:23:17Z,42.805,6.029,13.3036,4.60122,2470.693,2023-2-04T10:25:35Z
2023-02-04T08:26:20Z,42.805,6.029,13.3036,4.60119,2470.693,2023-2-04T10:28:38Z
2023-02-04T08:29:23Z,42.805,6.029,13.3038,4.60123,2470.693,2023-2-04T10:31:41Z
2023-02-04T08:32:26Z,42.805,6.029,13.3040,4.60122,2470.707,2023-2-04T10:34:44Z
2023-02-04T08:35:30Z,42.805,6.029,13.3047,4.60117,2470.693,2023-2-04T10:37:47Z
2023-02-04T08:38:33Z,42.805,6.029,13.3039,4.60123,2470.646,2023-2-04T10:40:50Z
2023-02-04T08:41:36Z,42.805,6.029,13.3036,4.60120,2470.717,2023-2-04T10:43:53Z
2023-02-04T08:44:39Z,42.805,6.029,13.3048,4.60132,2470.707,2023-2-04T10:46:57Z
2023-02-04T08:47:42Z,42.805,6.029,13.3038,4.60120,2470.67,2023-2-04T10:50:00Z
2023-02-04T08:50:45Z,42.805,6.029,13.3051,4.60117,2470.693,2023-2-04T10:53:03Z
2023-02-04T08:53:48Z,42.805,6.029,13.3042,4.60139,2470.67,2023-2-04T10:56:06Z
2023-02-04T08:56:51Z,42.805,6.029,13.3039,4.60107,2470.67,2023-2-04T10:59:09Z
2023-02-04T08:59:54Z,42.805,6.029,13.3042,4.60119,2470.67,2023-2-04T11:02:12Z
2023-02-04T09:02:57Z,42.805,6.029,13.3051,4.60117,2470.646,2023-2-04T11:05:15Z
2023-02-04T09:06:00Z,42.805,6.029,13.3040,4.60114,2470.67,2023-2-04T11:08:18Z
2023-02-04T09:09:03Z,42.805,6.029,13.3038,4.60115,2470.693,2023-2-04T11:11:21Z
2023-02-04T09:12:07Z,42.805,6.029,13.3036,4.60119,2470.661,2023-2-04T11:14:24Z
2023-02-04T09:15:10Z,42.805,6.029,13.3039,4.60113,2470.684,2023-2-04T11:17:27Z
2023-02-04T09:18:13Z,42.805,6.029,13.3039,4.60121,2470.67,2023-2-04T11:20:30Z
2023-02-04T09:21:16Z,42.805,6.029,13.3034,4.60102,2470.646,2023-2-04T11:23:34Z
2023-02-04T09:24:19Z,42.805,6.029,13.3027,4.60106,2470.67,2023-2-04T11:26:37Z
2023-02-04T09:27:22Z,42.805,6.029,13.3042,4.60112,2470.646,2023-2-04T11:29:40Z
2023-02-04T09:30:25Z,42.805,6.029,13.3041,4.60114,2470.624,2023-2-04T11:32:43Z
2023-02-04T09:33:28Z,42.805,6.029,13.3047,4.60113,2470.684,2023-2-04T11:35:46Z
2023-02-04T09:36:31Z,42.805,6.029,13.3035,4.60108,2470.67,2023-2-04T11:38:49Z
2023-02-04T09:39:34Z,42.805,6.029,13.3037,4.60110,2470.661,2023-2-04T11:41:52Z
2023-02-04T09:42:37Z,42.805,6.029,13.3036,4.60125,2470.646,2023-2-04T11:44:55Z
2023-02-04T09:45:40Z,42.805,6.029,13.3041,4.60114,2470.67,2023-2-04T11:47:58Z
2023-02-04T09:48:44Z,42.805,6.029,13.3036,4.60112,2470.684,2023-2-04T11:51:01Z
2023-02-04T09:51:47Z,42.805,6.029,13.3048,4.60123,2470.684,2023-2-04T11:54:04Z
2023-02-04T09:54:50Z,42.805,6.029,13.3038,4.60120,2470.661,2023-2-04T11:57:07Z
2023-02-04T09:57:53Z,42.805,6.029,13.3041,4.60114,2470.624,2023-2-04T12:00:11Z
2023-02-04T10:00:56Z,42.805,6.029,13.3040,4.60122,2470.624,2023-2-04T12:03:14Z
2023-02-04T10:03:59Z,42.805,6.029,13.3040,4.60123,2470.646,2023-2-04T12:06:17Z
2023-02-04T10:07:02Z,42.805,6.029,13.3036,4.60105,2470.637,2023-2-04T12:09:20Z
2023-02-04T10:10:05Z,42.805,6.029,13.3033,4.60106,2470.661,2023-2-04T12:12:23Z
2023-02-04T10:13:08Z,42.805,6.029,13.3037,4.60117,2470.637,2023-2-04T12:15:26Z
2023-02-04T10:16:11Z,42.805,6.029,13.3040,4.60109,2470.661,2023-2-04T12:18:29Z
2023-02-04T10:19:14Z,42.805,6.029,13.3041,4.60114,2470.661,2023-2-04T12:21:32Z
2023-02-04T10:22:17Z,42.805,6.029,13.3039,4.60114,2470.6,2023-2-04T12:24:35Z
2023-02-04T10:25:20Z,42.805,6.029,13.3041,4.60113,2470.646,2023-2-04T12:27:38Z
2023-02-04T10:28:24Z,42.805,6.029,13.3041,4.60116,2470.6,2023-2-04T12:30:41Z
2023-02-04T10:31:27Z,42.805,6.029,13.3043,4.60125,2470.646,2023-2-04T12:33:44Z
2023-02-04T10:34:30Z,42.805,6.029,13.3040,4.60114,2470.646,2023-2-04T12:36:47Z
2023-02-04T10:37:33Z,42.805,6.029,13.3035,4.60129,2470.6,2023-2-04T12:39:51Z
2023-02-04T10:40:36Z,42.805,6.029,13.3042,4.60122,2470.6,2023-2-04T12:42:54Z
2023-02-04T10:43:39Z,42.805,6.029,13.3046,4.60122,2470.624,2023-2-04T12:45:57Z
2023-02-04T10:46:42Z,42.805,6.029,13.3041,4.60105,2470.624,2023-2-04T12:49:00Z
2023-02-04T10:49:45Z,42.805,6.029,13.3039,4.60104,2470.624,2023-2-04T12:52:03Z
2023-02-04T10:52:48Z,42.805,6.029,13.3038,4.60119,2470.624,2023-2-04T12:55:06Z
2023-02-04T10:55:51Z,42.805,6.029,13.3036,4.60106,2470.614,2023-2-04T12:58:09Z
2023-02-04T10:58:54Z,42.805,6.029,13.3034,4.60097,2470.624,2023-2-04T13:01:12Z
2023-02-04T11:01:57Z,42.805,6.029,13.3035,4.60109,2470.6,2023-2-04T13:04:15Z
2023-02-04T11:05:00Z,42.805,6.029,13.3042,4.60113,2470.614,2023-2-04T13:07:18Z
2023-02-04T11:08:04Z,42.805,6.029,13.3037,4.60128,2470.567,2023-2-04T13:10:21Z
2023-02-04T11:11:07Z,42.805,6.029,13.3038,4.60113,2470.591,2023-2-04T13:13:24Z
2023-02-04T11:14:10Z,42.805,6.029,13.3039,4.60110,2470.577,2023-2-04T13:16:28Z
2023-02-04T11:17:13Z,42.805,6.029,13.3039,4.60112,2470.577,2023-2-04T13:19:31Z
2023-02-04T11:20:16Z,42.805,6.029,13.3039,4.60114,2470.637,2023-2-04T13:22:34Z
2023-02-04T11:23:19Z,42.805,6.029,13.3038,4.60122,2470.577,2023-2-04T13:25:37Z
2023-02-04T11:26:22Z,42.805,6.029,13.3040,4.60125,2470.614,2023-2-04T13:28:40Z
2023-02-04T11:29:25Z,42.805,6.029,13.3033,4.60104,2470.577,2023-2-04T13:31:43Z
2023-02-04T11:32:28Z,42.805,6.029,13.3043,4.60114,2470.614,2023-2-04T13:34:46Z
2023-02-04T11:35:31Z,42.805,6.029,13.3039,4.60110,2470.614,2023-2-04T13:37:49Z
2023-02-04T11:38:34Z,42.805,6.029,13.3042,4.60122,2470.567,2023-2-04T13:40:52Z
2023-02-04T11:41:37Z,42.805,6.029,13.3036,4.60114,2470.614,2023-2-04T13:43:55Z
2023-02-04T11:44:41Z,42.805,6.029,13.3040,4.60110,2470.567,2023-2-04T13:46:58Z
2023-02-04T11:47:44Z,42.805,6.029,13.3041,4.60114,2470.6,2023-2-04T13:50:01Z
2023-02-04T11:50:47Z,42.805,6.029,13.3045,4.60127,2470.591,2023-2-04T13:53:04Z
2023-02-04T11:53:50Z,42.805,6.029,13.3043,4.60123,2470.553,2023-2-04T13:56:08Z
2023-02-04T11:56:53Z,42.805,6.029,13.3034,4.60102,2470.544,2023-2-04T13:59:11Z
2023-02-04T11:59:56Z,42.805,6.029,13.3047,4.60130,2470.577,2023-2-04T14:02:14Z
2023-02-04T12:02:59Z,42.805,6.029,13.3039,4.60128,2470.591,2023-2-04T14:05:17Z
2023-02-04T12:06:02Z,42.805,6.029,13.3037,4.60132,2470.553,2023-2-04T14:08:20Z
2023-02-04T12:09:05Z,42.805,6.029,13.3039,4.60107,2470.581,2023-2-04T14:11:23Z
2023-02-04T12:12:08Z,42.805,6.029,13.3035,4.60131,2470.577,2023-2-04T14:14:26Z
2023-02-04T12:15:11Z,42.805,6.029,13.3042,4.60119,2470.591,2023-2-04T14:17:29Z
2023-02-04T12:18:14Z,42.805,6.029,13.3050,4.60108,2470.544,2023-2-04T14:20:32Z
2023-02-04T12:21:18Z,42.805,6.029,13.3045,4.60111,2470.53,2023-2-04T14:23:35Z
2023-02-04T12:24:21Z,42.805,6.029,13.3039,4.60116,2470.553,2023-2-04T14:26:38Z
2023-02-04T12:27:24Z,42.805,6.029,13.3048,4.60123,2470.591,2023-2-04T14:29:41Z
2023-02-04T12:30:27Z,42.805,6.029,13.3045,4.60111,2470.553,2023-2-04T14:32:45Z
2023-02-04T12:33:30Z,42.805,6.029,13.3036,4.60117,2470.53,2023-2-04T14:35:48Z
2023-02-04T12:36:33Z,42.805,6.029,13.3043,4.60125,2470.553,2023-2-04T14:38:51Z
2023-02-04T12:39:36Z,42.805,6.029,13.3040,4.60113,2470.553,2023-2-04T14:41:54Z
2023-02-04T12:42:39Z,42.805,6.029,13.3037,4.60105,2470.53,2023-2-04T14:44:57Z
2023-02-04T12:45:42Z,42.805,6.029,13.3050,4.60122,2470.553,2023-2-04T14:48:00Z
2023-02-04T12:48:45Z,42.805,6.029,13.3042,4.60110,2470.553,2023-2-04T14:51:03Z
2023-02-04T12:51:48Z,42.805,6.029,13.3041,4.60129,2470.53,2023-2-04T14:54:06Z
2023-02-04T12:54:51Z,42.805,6.029,13.3041,4.60111,2470.507,2023-2-04T14:57:09Z
2023-02-04T12:57:54Z,42.805,6.029,13.3041,4.60104,2470.553,2023-2-04T15:00:12Z
2023-02-04T13:00:58Z,42.805,6.029,13.3047,4.60133,2470.553,2023-2-04T15:03:15Z
2023-02-04T13:04:01Z,42.805,6.029,13.3056,4.60135,2470.544,2023-2-04T15:06:18Z
2023-02-04T13:07:04Z,42.805,6.029,13.3036,4.60135,2470.516,2023-2-04T15:09:21Z
2023-02-04T13:10:07Z,42.805,6.029,13.3041,4.60113,2470.553,2023-2-04T15:12:25Z
2023-02-04T13:13:10Z,42.805,6.029,13.3041,4.60110,2470.53,2023-2-04T15:15:28Z
2023-02-04T13:16:13Z,42.805,6.029,13.3051,4.60113,2470.567,2023-2-04T15:18:31Z
2023-02-04T13:19:16Z,42.805,6.029,13.3042,4.60122,2470.53,2023-2-04T15:21:34Z
2023-02-04T13:22:19Z,42.805,6.029,13.3043,4.60114,2470.544,2023-2-04T15:24:37Z
2023-02-04T13:25:22Z,42.805,6.029,13.3049,4.60112,2470.544,2023-2-04T15:27:40Z
2023-02-04T13:28:25Z,42.805,6.029,13.3042,4.60117,2470.507,2023-2-04T15:30:43Z
2023-02-04T13:31:28Z,42.805,6.029,13.3041,4.60104,2470.53,2023-2-04T15:33:46Z
2023-02-04T13:34:31Z,42.805,6.029,13.3040,4.60103,2470.507,2023-2-04T15:36:49Z
2023-02-04T13:37:34Z,42.805,6.029,13.3043,4.60110,2470.544,2023-2-04T15:39:52Z
2023-02-04T13:40:38Z,42.805,6.029,13.3038,4.60105,2470.507,2023-2-04T15:42:55Z
2023-02-04T13:43:41Z,42.805,6.029,13.3047,4.60119,2470.553,2023-2-04T15:45:58Z
2023-02-04T13:46:44Z,42.805,6.029,13.3048,4.60126,2470.483,2023-2-04T15:49:02Z
2023-02-04T13:49:47Z,42.805,6.029,13.3038,4.60132,2470.507,2023-2-04T15:52:05Z
2023-02-04T13:52:50Z,42.805,6.029,13.3046,4.60142,2470.52,2023-2-04T15:55:08Z
2023-02-04T13:55:53Z,42.805,6.029,13.3056,4.60134,2470.483,2023-2-04T15:58:11Z
2023-02-04T13:58:56Z,42.805,6.029,13.3045,4.60112,2470.507,2023-2-04T16:01:14Z
2023-02-04T14:01:59Z,42.805,6.029,13.3043,4.60107,2470.544,2023-2-04T16:04:17Z
2023-02-04T14:05:02Z,42.805,6.029,13.3040,4.60102,2470.507,2023-2-04T16:07:20Z
2023-02-04T14:08:05Z,42.805,6.029,13.3041,4.60103,2470.507,2023-2-04T16:10:23Z
2023-02-04T14:11:08Z,42.805,6.029,13.3048,4.60123,2470.507,2023-2-04T16:13:26Z
2023-02-04T14:14:11Z,42.805,6.029,13.3040,4.60132,2470.53,2023-2-04T16:16:29Z
2023-02-04T14:17:15Z,42.805,6.029,13.3050,4.60135,2470.52,2023-2-04T16:19:32Z
2023-02-04T14:20:18Z,42.805,6.029,13.3057,4.60110,2470.507,2023-2-04T16:22:35Z
2023-02-04T14:23:21Z,42.805,6.029,13.3036,4.60117,2470.52,2023-2-04T16:25:39Z
2023-02-04T14:26:24Z,42.805,6.029,13.3052,4.60132,2470.544,2023-2-04T16:28:42Z
2023-02-04T14:29:27Z,42.805,6.029,13.3052,4.60121,2470.507,2023-2-04T16:31:45Z
2023-02-04T14:32:30Z,42.805,6.029,13.3043,4.60122,2470.53,2023-2-04T16:34:48Z
2023-02-04T14:35:33Z,42.805,6.029,13.3041,4.60103,2470.52,2023-2-04T16:37:51Z
2023-02-04T14:38:36Z,42.805,6.029,13.3037,4.60114,2470.52,2023-2-04T16:40:54Z
2023-02-04T14:41:39Z,42.805,6.029,13.3037,4.60115,2470.507,2023-2-04T16:43:57Z
2023-02-04T14:44:42Z,42.805,6.029,13.3043,4.60108,2470.483,2023-2-04T16:47:00Z
2023-02-04T14:47:45Z,42.805,6.029,13.3047,4.60120,2470.52,2023-2-04T16:50:03Z
2023-02-04T14:50:48Z,42.805,6.029,13.3056,4.60123,2470.52,2023-2-04T16:53:06Z
2023-02-04T14:53:51Z,42.805,6.029,13.3034,4.60114,2470.544,2023-2-04T16:56:09Z
2023-02-04T14:56:55Z,42.805,6.029,13.3049,4.60107,2470.483,2023-2-04T16:59:12Z
2023-02-04T14:59:58Z,42.805,6.029,13.3049,4.60125,2470.567,2023-2-04T17:02:15Z
2023-02-04T15:03:01Z,42.805,6.029,13.3039,4.60127,2470.53,2023-2-04T17:05:19Z
2023-02-04T15:06:04Z,42.805,6.029,13.3052,4.60115,2470.53,2023-2-04T17:08:22Z
2023-02-04T15:09:07Z,42.805,6.029,13.3043,4.60132,2470.53,2023-2-04T17:11:25Z
2023-02-04T15:12:10Z,42.805,6.029,13.3048,4.60114,2470.53,2023-2-04T17:14:28Z
2023-02-04T15:15:13Z,42.805,6.029,13.3049,4.60122,2470.53,2023-2-04T17:17:31Z